Torna al catalogo

CZ-6A DEB

AttivoPO
NORAD 60768·DEBRIS·🇨🇳 China

Lanciato Aug 6, 2024 da Taiyuan Satellite Launch Center

Loading…

Prossimi Passaggi (prossime 24 ore)

TLE

AggiornatoSource: Space-Track

Epoca: Sep 14, 2026, 18:18 UTC

1 60768U 24140ET  26257.76270396  .00002531  00000-0  50528-3 0  9994
2 60768  89.0866 267.9959 0109761 316.1967  43.0576 14.57887554111046

Traccia CZ-6A DEB in tempo reale con AllMySat

Download on the App Store